Morristown, NJ

2:56 AM EST on December 14, 2019 (GMT -0500)
Morristown Municipal

Weather History for KMMU - November, 2019

Change the Weather History Date:

Thursday, November 14, 2019

  Actual Average Record
Temperature  
Mean Temperature 30 °F -  
Max Temperature 41 °F 50 °F 71 °F (1964)
Min Temperature 19 °F 31 °F 11 °F (1986)
Degree Days  
Heating Degree Days 35    
Moisture  
Dew Point 22 °F    
Average Humidity 86    
Maximum Humidity 100    
Minimum Humidity 45    
Precipitation  
Precipitation 0.00 in - - ()
Sea Level Pressure  
Sea Level Pressure 30.39 in    
Wind  
Wind Speed 1 mph ()    
Max Wind Speed 9 mph    
Max Gust Speed 17 mph    
Visibility 10.0 miles    
Events      
Averages and records for this station are not official NWS values.
T = Trace of Precipitation, MM = Missing Value Source: Averaged Metar Reports

Daily Weather History Graph

Daily Weather History Graph

Search for Another Location

Airport or City:

Astronomy

Nov. 14, 2019 Rise Set
Actual Time 6:43 AM EST 4:40 PM EST
Civil Twilight 6:13 AM EST 5:09 PM EST
Nautical Twilight 5:40 AM EST 5:42 PM EST
Astronomical Twilight 5:08 AM EST 6:15 PM EST
Moon 6:23 PM EST 8:36 AM EST
Length of Visible Light 10h 55m
Length of Day
9h 57m
Waning Gibbous, 95% of the Moon is Illuminated
Nov 14
Waning Gibbous
Nov 19
Last Quarter
Nov 26
New
Dec 4
First Quarter
Dec 12
Full

Hourly Weather History & Observations

Time (EST) Temp. Windchill Dew Point Humidity Pressure Visibility Wind Dir Wind Speed Gust Speed Precip Events Conditions
12:35 AM 21.2 °F - 19.4 °F 93% 30.44 in 10.0 mi Calm Calm - N/A   Clear
12:55 AM 21.2 °F - 19.4 °F 93% 30.44 in 10.0 mi Calm Calm - N/A   Clear
1:15 AM 21.2 °F - 21.2 °F 100% 30.43 in 10.0 mi Calm Calm - N/A   Clear
1:35 AM 23.0 °F - 21.2 °F 93% 30.44 in 10.0 mi Calm Calm - N/A   Clear
1:55 AM 21.2 °F - 19.4 °F 93% 30.44 in 10.0 mi Calm Calm - N/A   Clear
2:15 AM 21.2 °F - 21.2 °F 100% 30.44 in 10.0 mi Calm Calm - N/A   Clear
2:35 AM 19.4 °F - 19.4 °F 100% 30.44 in 10.0 mi Calm Calm - N/A   Clear
2:55 AM 19.4 °F - 19.4 °F 100% 30.44 in 10.0 mi Calm Calm - N/A   Clear
3:15 AM 19.4 °F - 19.4 °F 100% 30.43 in 10.0 mi Calm Calm - N/A   Clear
3:35 AM 19.4 °F - 19.4 °F 100% 30.42 in 10.0 mi Calm Calm - N/A   Clear
3:55 AM 19.4 °F - 19.4 °F 100% 30.42 in 10.0 mi Calm Calm - N/A   Clear
4:15 AM 19.4 °F - 19.4 °F 100% 30.42 in 10.0 mi Calm Calm - N/A   Clear
4:35 AM 19.4 °F - 19.4 °F 100% 30.42 in 10.0 mi Calm Calm - N/A   Clear
4:55 AM 19.4 °F - 19.4 °F 100% 30.42 in 10.0 mi Calm Calm - N/A   Clear
5:15 AM 19.4 °F - 19.4 °F 100% 30.42 in 10.0 mi Calm Calm - N/A   Clear
5:35 AM 19.4 °F - 19.4 °F 100% 30.43 in 10.0 mi Calm Calm - N/A   Clear
5:55 AM 19.4 °F - 19.4 °F 100% 30.42 in 10.0 mi Calm Calm - N/A   Clear
6:15 AM 19.4 °F - 19.4 °F 100% 30.43 in 10.0 mi Calm Calm - N/A   Clear
6:35 AM 19.4 °F - 19.4 °F 100% 30.43 in 10.0 mi Calm Calm - N/A   Clear
6:45 AM 19.4 °F - 19.4 °F 100% 30.45 in 10.0 mi Calm Calm - N/A   Mostly Cloudy
7:45 AM 21.2 °F - 21.2 °F 100% 30.47 in 10.0 mi Calm Calm - N/A   Mostly Cloudy
8:55 AM 26.6 °F - 23.0 °F 86% 30.47 in 10.0 mi Calm Calm - N/A   Mostly Cloudy
9:55 AM 28.4 °F - 23.0 °F 80% 30.46 in 10.0 mi Calm Calm - N/A   Mostly Cloudy
10:45 AM 32.0 °F - 21.2 °F 64% 30.44 in 10.0 mi Calm Calm - N/A   Overcast
12:50 PM 41.0 °F 36.4 °F 23.0 °F 49% 30.37 in 10.0 mi SW 6.9 mph - N/A   Mostly Cloudy
1:45 PM 41.0 °F 35.2 °F 21.2 °F 45% 30.34 in 10.0 mi WSW 9.2 mph 17.3 mph N/A   Mostly Cloudy
2:45 PM 41.0 °F 37.1 °F 23.0 °F 49% 30.34 in 10.0 mi SW 5.8 mph - N/A   Mostly Cloudy
4:45 PM 39.2 °F - 24.8 °F 56% 30.31 in 10.0 mi Calm Calm - N/A   Mostly Cloudy
5:45 PM 35.6 °F 32.8 °F 26.6 °F 70% 30.32 in 10.0 mi SW 3.5 mph - N/A   Mostly Cloudy
6:45 PM 32.0 °F - 26.6 °F 80% 30.31 in 10.0 mi Calm Calm - N/A   Mostly Cloudy
7:45 PM 33.8 °F - 28.4 °F 81% 30.30 in 10.0 mi Calm Calm - N/A   Scattered Clouds
8:45 PM 32.0 °F 28.7 °F 28.4 °F 87% 30.30 in 10.0 mi South 3.5 mph - N/A   Scattered Clouds
10:15 PM 33.8 °F - 24.8 °F 70% 30.30 in 10.0 mi Calm Calm - N/A   Mostly Cloudy
10:35 PM 32.0 °F 28.7 °F 23.0 °F 69% 30.29 in 10.0 mi SE 3.5 mph - N/A   Scattered Clouds
10:55 PM 33.8 °F - 23.0 °F 65% 30.30 in 10.0 mi Calm Calm - N/A   Clear
11:15 PM 30.2 °F - 24.8 °F 80% 30.30 in 10.0 mi Calm Calm - N/A   Clear
11:35 PM 30.2 °F - 24.8 °F 80% 30.29 in 10.0 mi Calm Calm - N/A   Scattered Clouds